KG9NS Weather Reports


time (UTC)temp
C
wind
direction
speed
KPH
gust
KPH
rain 1hr
cm
rain 24hr
cm
rain mn
cm
humidity
%
barometer
mb
20260505041732 20 194 12.9 17.7 0.00 0.00 0.00 59 1006.4
20260505041234 20 190 9.7 11.3 0.00 0.00 0.00 59 1006.4
20260505040732 20 193 6.4 11.3 0.00 0.00 0.00 60 1006.4
20260505040232 20 172 6.4 9.7 0.00 0.00 0.00 60 1006.4
20260505035731 20 197 8.0 11.3 0.00 0.00 0.03 60 1006.5
20260505035234 20 194 9.7 14.5 0.00 0.00 0.03 60 1006.5
20260505034732 20 199 8.0 9.7 0.00 0.00 0.03 60 1006.5
20260505034233 20 191 6.4 9.7 0.00 0.00 0.03 60 1006.5
20260505033731 20 203 8.0 9.7 0.00 0.00 0.03 60 1006.6
20260505033232 20 187 4.8 9.7 0.00 0.00 0.03 60 1006.6
20260505032732 20 201 6.4 9.7 0.00 0.00 0.03 60 1006.6
20260505032231 20 192 8.0 11.3 0.00 0.00 0.03 60 1006.6
20260505031731 20 174 6.4 11.3 0.00 0.00 0.03 60 1006.6
20260505031232 20 189 4.8 11.3 0.00 0.00 0.03 60 1006.5
20260505030732 20 190 6.4 8.0 0.00 0.00 0.03 59 1006.5
20260505030231 20 194 12.9 19.3 0.00 0.00 0.03 59 1006.5
20260505025731 20 190 6.4 14.5 0.00 0.00 0.03 59 1006.4
20260505025232 20 190 9.7 12.9 0.00 0.00 0.03 59 1006.4
20260505024732 20 195 4.8 6.4 0.00 0.00 0.03 60 1006.3
20260505024232 20 181 6.4 12.9 0.00 0.00 0.03 60 1006.3
20260505023731 20 194 8.0 14.5 0.00 0.00 0.03 59 1006.2
20260505023232 20 193 6.4 9.7 0.00 0.00 0.03 60 1006.1
20260505022733 20 191 8.0 11.3 0.00 0.00 0.03 59 1006.1
20260505022231 20 190 3.2 6.4 0.00 0.00 0.03 59 1005.9
20260505021733 20 187 6.4 9.7 0.00 0.00 0.03 59 1005.9
20260505021232 20 199 6.4 9.7 0.00 0.00 0.03 59 1005.8
20260505020732 20 192 8.0 12.9 0.00 0.00 0.03 59 1005.7
20260505020233 20 176 4.8 9.7 0.00 0.00 0.03 59 1005.6
20260505015731 20 166 6.4 9.7 0.00 0.00 0.03 59 1005.6
20260505015231 21 177 3.2 6.4 0.00 0.00 0.03 58 1005.5
20260505014732 21 171 3.2 4.8 0.00 0.00 0.03 58 1005.6
20260505014232 21 175 4.8 9.7 0.00 0.00 0.03 58 1005.5
20260505013733 21 183 4.8 8.0 0.00 0.00 0.03 57 1005.5
20260505013232 21 179 4.8 8.0 0.00 0.00 0.03 57 1005.5
20260505012732 21 168 4.8 6.4 0.00 0.00 0.03 56 1005.4
20260505012232 21 177 1.6 4.8 0.00 0.00 0.03 56 1005.4
20260505011734 21 199 4.8 6.4 0.00 0.00 0.03 55 1005.4
20260505011231 21 184 4.8 8.0 0.00 0.00 0.03 55 1005.3
20260505010732 21 191 6.4 11.3 0.00 0.00 0.03 54 1005.3
20260505010231 21 187 4.8 8.0 0.00 0.00 0.03 54 1005.3
20260505005731 22 182 4.8 6.4 0.00 0.00 0.03 54 1005.3
20260505005231 22 179 8.0 11.3 0.00 0.00 0.03 53 1005.3
20260505004732 22 196 6.4 14.5 0.00 0.00 0.03 53 1005.2
20260505004231 22 192 8.0 11.3 0.00 0.00 0.03 52 1005.3
20260505003731 22 216 6.4 11.3 0.00 0.00 0.03 52 1005.2
20260505003233 22 215 3.2 6.4 0.00 0.00 0.03 52 1005.3
20260505002731 22 209 6.4 14.5 0.00 0.00 0.03 51 1005.3
20260505002231 22 183 8.0 12.9 0.00 0.00 0.03 51 1005.3
20260505001732 22 231 9.7 12.9 0.00 0.00 0.03 50 1005.3
20260505001232 23 188 9.7 16.1 0.00 0.00 0.03 50 1005.4
20260505000731 23 219 6.4 9.7 0.00 0.00 0.03 49 1005.4
20260505000233 23 192 8.0 12.9 0.00 0.00 0.03 49 1005.5
20260504235731 23 208 8.0 9.7 0.00 0.00 0.03 48 1005.6
20260504235232 23 210 6.4 9.7 0.00 0.00 0.03 48 1005.6
20260504234731 23 219 8.0 11.3 0.00 0.00 0.03 48 1005.7
20260504234231 23 191 8.0 14.5 0.00 0.00 0.03 47 1005.8
20260504233731 23 217 9.7 12.9 0.00 0.00 0.03 47 1005.8
20260504233232 23 227 14.5 20.9 0.00 0.00 0.03 46 1005.8
20260504232731 23 228 8.0 16.1 0.00 0.00 0.03 47 1005.9
20260504232231 23 207 14.5 17.7 0.00 0.00 0.03 47 1005.8
20260504231733 23 210 14.5 20.9 0.00 0.00 0.03 47 1005.8
20260504231232 23 216 12.9 19.3 0.00 0.00 0.03 48 1005.8
20260504230732 23 228 9.7 11.3 0.00 0.00 0.03 51 1005.8
20260504230231 23 210 6.4 11.3 0.00 0.00 0.03 52 1005.8
20260504225731 23 187 9.7 14.5 0.00 0.00 0.03 52 1005.9
20260504225233 23 195 6.4 11.3 0.00 0.00 0.03 53 1006.0
20260504224733 22 201 3.2 6.4 0.00 0.00 0.03 54 1006.1
20260504224231 22 198 4.8 6.4 0.00 0.00 0.03 54 1006.2
20260504223732 22 168 3.2 4.8 0.00 0.00 0.03 53 1006.2
20260504223232 22 190 4.8 8.0 0.00 0.00 0.03 52 1006.3
20260504222732 23 230 3.2 6.4 0.00 0.00 0.03 53 1006.4
20260504222232 23 222 6.4 9.7 0.00 0.00 0.03 52 1006.4
20260504221733 23 213 4.8 6.4 0.00 0.00 0.03 52 1006.4
20260504221233 22 215 1.6 3.2 0.00 0.00 0.03 53 1006.4
20260504220731 22 162 3.2 6.4 0.00 0.00 0.03 52 1006.4
20260504220232 22 239 4.8 8.0 0.00 0.00 0.03 52 1006.5
20260504215731 22 221 6.4 11.3 0.00 0.00 0.03 52 1006.4
20260504215234 22 187 6.4 9.7 0.00 0.00 0.03 51 1006.2
20260504214731 22 171 3.2 6.4 0.00 0.00 0.03 53 1006.4
20260504214232 22 207 8.0 9.7 0.00 0.00 0.03 53 1006.7
20260504213733 22 233 4.8 6.4 0.00 0.00 0.03 53 1006.8
20260504213234 22 227 6.4 12.9 0.00 0.00 0.03 53 1006.9
20260504212732 22 241 8.0 11.3 0.00 0.00 0.03 52 1007.0
20260504212233 22 253 11.3 17.7 0.00 0.00 0.03 52 1007.0
20260504211734 22 222 8.0 12.9 0.00 0.00 0.03 52 1007.1
20260504211235 22 222 11.3 17.7 0.00 0.00 0.03 53 1007.1
20260504210734 22 220 9.7 12.9 0.00 0.00 0.03 53 1007.2
20260504210234 22 217 8.0 9.7 0.00 0.00 0.03 54 1007.3
20260504205733 22 231 8.0 12.9 0.00 0.00 0.03 54 1007.4
20260504205233 22 225 9.7 11.3 0.00 0.00 0.03 55 1007.4
20260504204734 22 221 8.0 11.3 0.00 0.00 0.03 55 1007.4
20260504204231 22 220 6.4 11.3 0.00 0.00 0.03 54 1007.4
20260504203732 22 229 6.4 9.7 0.00 0.00 0.03 55 1007.6
20260504203233 22 221 9.7 14.5 0.00 0.00 0.03 55 1007.7
20260504202733 22 239 12.9 17.7 0.00 0.00 0.03 55 1007.9
20260504202233 22 212 17.7 20.9 0.00 0.00 0.03 55 1007.8
20260504201734 22 216 6.4 9.7 0.00 0.00 0.03 56 1007.8
20260504201232 22 228 11.3 17.7 0.00 0.00 0.03 54 1007.8
20260504200734 22 229 11.3 16.1 0.00 0.00 0.03 56 1007.8
20260504200233 21 221 9.7 17.7 0.00 0.00 0.03 58 1007.8
20260504195733 21 218 11.3 19.3 0.03 0.00 0.03 60 1007.8
20260504195232 21 231 6.4 11.3 0.03 0.00 0.03 61 1007.8
20260504194733 20 218 9.7 14.5 0.03 0.00 0.03 62 1007.9
20260504194233 20 215 8.0 14.5 0.03 0.00 0.03 63 1008.0
20260504193731 20 179 6.4 12.9 0.03 0.00 0.03 65 1008.2
20260504193232 19 184 6.4 11.3 0.03 0.00 0.03 67 1008.4
20260504192733 19 193 3.2 6.4 0.03 0.00 0.03 67 1008.4
20260504192231 18 208 6.4 8.0 0.03 0.00 0.03 67 1008.2
20260504191733 18 169 6.4 8.0 0.03 0.00 0.03 69 1008.4
20260504191233 18 236 8.0 12.9 0.03 0.00 0.03 69 1009.2
20260504190731 18 229 8.0 11.3 0.00 0.00 0.03 68 1009.1
20260504190233 19 158 6.4 9.7 0.00 0.00 0.03 66 1008.5
20260504185733 20 219 4.8 8.0 0.00 0.00 0.03 64 1009.2
20260504185233 20 233 9.7 16.1 0.00 0.00 0.00 61 1009.7
20260504184733 20 221 11.3 22.5 0.00 0.00 0.00 61 1009.5
20260504184233 20 219 11.3 14.5 0.00 0.00 0.00 61 1009.2
20260504183734 20 241 12.9 19.3 0.00 0.00 0.00 60 1009.1
20260504183234 20 215 12.9 20.9 0.00 0.00 0.00 60 1009.1
20260504182734 20 225 14.5 20.9 0.00 0.00 0.00 60 1009.1
20260504182231 20 231 11.3 16.1 0.00 0.00 0.00 61 1008.7
20260504181733 20 208 11.3 16.1 0.00 0.00 0.00 61 1008.5
20260504181234 20 182 14.5 19.3 0.00 0.00 0.00 61 1008.4
20260504180735 20 182 11.3 19.3 0.00 0.00 0.00 61 1008.4
20260504180233 21 199 11.3 14.5 0.00 0.00 0.00 60 1008.4
20260504175733 20 215 8.0 14.5 0.00 0.00 0.00 60 1008.1
20260504175233 20 235 16.1 20.9 0.00 0.00 0.00 60 1008.1
20260504174733 20 173 11.3 19.3 0.00 0.00 0.00 61 1008.1
20260504174233 20 219 9.7 16.1 0.00 0.00 0.00 63 1007.9
20260504173734 20 220 9.7 16.1 0.00 0.00 0.00 63 1007.9
20260504173233 20 189 9.7 17.7 0.00 0.00 0.00 62 1008.3
20260504172731 20 205 9.7 14.5 0.00 0.00 0.00 63 1008.4
20260504172232 20 208 8.0 11.3 0.00 0.00 0.00 64 1008.4
20260504171732 20 203 8.0 11.3 0.00 0.00 0.00 62 1008.4
20260504171235 20 167 9.7 11.3 0.00 0.00 0.00 63 1008.2
20260504170733 19 187 4.8 9.7 0.00 0.00 0.00 64 1008.3
20260504170233 19 194 8.0 11.3 0.00 0.00 0.00 63 1008.4
20260504160233 17 166 8.0 11.3 0.00 0.00 0.00 65 1008.9
20260504150734 17 223 8.0 12.9 0.00 0.00 0.00 65 1009.3
20260504150233 16 227 9.7 11.3 0.00 0.00 0.00 65 1009.4
20260504141234 15 167 8.0 14.5 0.00 0.00 0.00 68 1009.5
20260504140736 15 183 8.0 16.1 0.00 0.00 0.00 68 1009.5
20260504140236 15 159 9.7 14.5 0.00 0.00 0.00 68 1009.6
20260504130735 13 160 8.0 11.3 0.00 0.00 0.00 70 1009.6
20260504130233 13 168 6.4 9.7 0.00 0.00 0.00 70 1009.6
20260504120233 12 186 8.0 16.1 0.00 0.00 0.00 70 1009.7
20260504110234 11 169 6.4 9.7 0.00 0.00 0.00 69 1009.5
20260504100231 11 165 6.4 8.0 0.00 0.00 0.00 67 1009.8
20260504081731 11 198 8.0 12.9 0.00 0.00 0.00 63 1010.4
20260504081231 11 181 6.4 9.7 0.00 0.00 0.00 63 1010.5
20260504080731 11 190 8.0 14.5 0.00 0.00 0.00 63 1010.5
20260504080231 11 203 6.4 9.7 0.00 0.00 0.00 63 1010.5
20260504070231 12 192 6.4 11.3 0.00 0.00 0.00 61 1010.8
20260504060231 12 187 6.4 9.7 0.00 0.00 0.00 61 1011.6
20260504050731 12 184 8.0 14.5 0.00 0.00 0.00 60 1012.1
20260504050231 12 176 6.4 12.9 0.00 0.00 0.00 60 1012.0
20260504045731 12 188 6.4 9.7 0.00 0.00 0.00 60 1012.0
20260504045232 12 188 6.4 8.0 0.00 0.00 0.00 60 1012.1
20260504044731 12 189 6.4 11.3 0.00 0.00 0.00 60 1012.1
20260504044233 12 178 6.4 11.3 0.00 0.00 0.00 60 1012.2
20260504043731 12 189 9.7 12.9 0.00 0.00 0.00 59 1012.2
20260504043233 12 196 8.0 12.9 0.00 0.00 0.00 59 1012.2
20260504042731 12 201 6.4 9.7 0.00 0.00 0.00 59 1012.3
20260504042231 12 183 8.0 12.9 0.00 0.00 0.00 59 1012.3